Location: Peebles
(55.6412°N, 3.1714°W)
Time: 15:01:28
(UTC+01:00)

FENGYUN 1C DEB - Pass Details

Date: 03 July 2022
Orbit: 747 x 899 km, 98.5° (Epoch: 16 August)

Event Time Altitude Azimuth Distance (km) Brightness Sun altitude
Rises 22:48:37 0° 225° (SW) 3,270 ? -5.4°
Reaches altitude 10° 22:52:39 10° 256° (WSW) 2,316 ? -5.7°
Maximum altitude 22:54:29 12° 278° (W) 2,182 ? -5.8°
Drops below altitude 10° 22:56:18 10° 299° (WNW) 2,300 ? -5.9°
Sets 23:00:18 0° 331° (NNW) 3,215 ? -6.2°
